DECAYED

STARLINK-4801, 54825 (Decayed)

Orbit data source: Space-Track

STARLINK-4801, 54825 was a payload satellite owned by SpaceX/Seattle (US) in LEO that was launched on Wed, 28 Dec 2022 UTC via an FALCON 9 launch vehicle from the Air Force Eastern Test Range (AFETR). Payload-class satellites include a variety of spacecraft equipped with specific instruments for various scientific and technological missions. These include communications satellites like Starlink; space stations such as the ISS; scientific satellites like the Hubble; Earth observation satellites from companies like Planet Labs, Umbra, and HawkEye 360; GPS; miniature CubeSats for education and research; and military/defense satellites.

Not visible in the next 10 days
Identifier
54825, 2022-177F
Orbit
Decayed
Country
Flag of USUS
Related business
Manufacturer
SpaceX/Seattle
Mission
Decayed Commercial Communications
Bus & Motor
STARLINK, Unknown motor
Mass
305 kg wet, ~290 kg dry
Launch date (UTC)
2022-12-28 (3 years ago)
Launch vehicle
FALCON 9
Launch site
Air Force Eastern Test Range (AFETR)
Object type
Payload
Rocket body
Debris
Shape & HBR
Box + 1 Pan, 10.1 m
Radar Cross Section
13.562 m², Large (>1 m²)

Expand to show TLE details & history
Last TLE update: 9 months ago

TLE from 9 months ago
0 STARLINK-4801
1 54825U 22177F   25274.85754977  .08966872  90208-5  23633-2 0  9994
2 54825  42.9871 218.3787 0004297 242.1551 117.8902 16.27468364153728
Epoch: 2025-10-01T20:34Z
TLE epoch observation values (Epoch: 2025-10-01T20:34:52.300Z)
Latitude
-0°
Longitude
-101.16576°
Altitude
200.439 km
Speed
7.787 km/s
True Right ascension
14h 33m 30s
True Declination
0° 00' 00"
Sunlit
Object was in daylight at epoch
Visualization orbit readout
Latitude
Unknown
Longitude
Unknown
Altitude
Unknown
Speed
Unknown
Apparent Right ascension
Unknown
Apparent Declination
Unknown
Sunlit
N/A
Visualization observer readout
Local Sidereal Time
21:24:04
Azimuth
Unknown
Elevation
Unknown
Doppler factor
Unknown
Orbital elements
Apogee altitude
204.21 km
Perigee altitude
198.556 km
Semi-major axis
6,579.52 km
Eccentricity
0.00043
Inclination
42.9871°
RAAN
218.3787°
Arg. of periapsis
242.1551°
True anomaly
117.93371°
Mean anomaly
117.8902°
Eccentric anomaly
117.91196°
Mean motion
4.06679 °/min
Orbital period
88.52 mins
BSTAR
0.0023633
Loading maneuver chart data...
Computing Atmospheric mass density...
Loading historical data...
Loading historical data...
Loading historical data...
Loading historical data...
Loading historical data...
Loading historical data...
Loading historical data...

Documentation

Showing up to 5 results
|